TimeEST,TemperatureF,Dew PointF,Humidity,Sea Level PressureIn,VisibilityMPH,Wind Direction,Wind SpeedMPH,Gust SpeedMPH,PrecipitationIn,Events,Conditions,WindDirDegrees,DateUTC
12:08 AM,44.6,41.0,87,29.69,7.0,WSW,10.4,-,N/A,,Overcast,250,2005-12-31 05:08:00
12:51 AM,44.6,41.0,87,29.69,5.0,West,12.7,-,N/A,,Overcast,260,2005-12-31 05:51:00
12:53 AM,44.1,41.0,89,29.70,5.0,West,13.8,-,N/A,,Overcast,260,2005-12-31 05:53:00
1:34 AM,42.8,41.0,93,29.70,5.0,West,12.7,-,N/A,,Overcast,270,2005-12-31 06:34:00
1:53 AM,43.0,39.9,89,29.72,7.0,West,12.7,-,N/A,,Overcast,270,2005-12-31 06:53:00
2:19 AM,42.8,39.2,87,29.72,9.0,West,10.4,-,N/A,,Overcast,280,2005-12-31 07:19:00
2:29 AM,42.8,37.4,81,29.72,9.0,West,9.2,-,N/A,,Mostly Cloudy,280,2005-12-31 07:29:00
2:53 AM,41.0,37.0,86,29.73,8.0,West,5.8,-,N/A,,Clear,260,2005-12-31 07:53:00
3:53 AM,39.9,36.0,86,29.75,8.0,WSW,6.9,-,N/A,,Clear,240,2005-12-31 08:53:00
4:53 AM,41.0,37.0,86,29.75,8.0,SW,5.8,-,N/A,,Overcast,230,2005-12-31 09:53:00
5:53 AM,39.9,37.0,89,29.77,9.0,SSW,6.9,-,N/A,,Overcast,210,2005-12-31 10:53:00
6:13 AM,39.2,37.4,93,29.77,9.0,SW,9.2,-,N/A,,Overcast,230,2005-12-31 11:13:00
6:25 AM,41.0,35.6,81,29.78,10.0,WSW,10.4,-,N/A,,Overcast,240,2005-12-31 11:25:00
7:53 AM,39.9,35.1,83,29.81,9.0,WSW,8.1,-,N/A,,Mostly Cloudy,240,2005-12-31 12:53:00
8:53 AM,41.0,35.1,79,29.83,8.0,SW,6.9,-,N/A,,Overcast,230,2005-12-31 13:53:00
9:53 AM,41.0,36.0,82,29.85,9.0,WSW,9.2,-,N/A,,Overcast,240,2005-12-31 14:53:00
10:43 AM,42.8,35.6,76,29.85,10.0,WSW,9.2,23.0,N/A,,Mostly Cloudy,250,2005-12-31 15:43:00
10:53 AM,43.0,34.0,71,29.86,10.0,WSW,16.1,19.6,N/A,,Mostly Cloudy,250,2005-12-31 15:53:00
11:53 AM,44.1,34.0,68,29.85,10.0,WSW,11.5,-,N/A,,Mostly Cloudy,250,2005-12-31 16:53:00
12:15 PM,44.6,33.8,66,29.84,10.0,WSW,13.8,-,N/A,,Scattered Clouds,250,2005-12-31 17:15:00
12:53 PM,46.0,33.1,61,29.85,10.0,WSW,15.0,-,N/A,,Clear,250,2005-12-31 17:53:00
1:53 PM,48.0,32.0,54,29.85,10.0,West,16.1,20.7,N/A,,Clear,260,2005-12-31 18:53:00
2:53 PM,48.9,30.9,50,29.85,10.0,West,11.5,21.9,N/A,,Clear,270,2005-12-31 19:53:00
3:53 PM,48.0,30.0,50,29.87,10.0,West,17.3,-,N/A,,Clear,270,2005-12-31 20:53:00
4:53 PM,46.9,30.9,54,29.88,10.0,West,9.2,-,N/A,,Clear,270,2005-12-31 21:53:00
5:53 PM,45.0,30.9,58,29.89,10.0,West,5.8,-,N/A,,Clear,270,2005-12-31 22:53:00
6:53 PM,42.1,30.9,65,29.89,10.0,Calm,Calm,-,N/A,,Clear,0,2005-12-31 23:53:00
7:53 PM,39.9,32.0,73,29.93,10.0,North,5.8,-,N/A,,Clear,360,2006-01-01 00:53:00
8:53 PM,37.9,30.9,76,29.94,10.0,NE,3.5,-,N/A,,Clear,40,2006-01-01 01:53:00
9:53 PM,37.0,30.9,79,29.96,10.0,Calm,Calm,-,N/A,,Clear,0,2006-01-01 02:53:00
10:53 PM,35.1,30.0,82,29.97,10.0,Calm,Calm,-,N/A,,Clear,0,2006-01-01 03:53:00
11:53 PM,34.0,30.0,85,29.96,7.0,ESE,3.5,-,N/A,,Clear,120,2006-01-01 04:53:00